Regional Weather Roundup
Issued by NWS

Home | Current Version | Previous Version | Text Only | Print | Product List | Glossary On
Versions: 1 2 3 4 5 6 7 8 9 10 11 12 13 14 15 16 17 18 19 20 21 22 23 24 25 26 27 28 29 30 31 32 33 34 35 36 37 38 39 40 41 42 43 44 45 46 47 48 49 50
000
ASUS45 KABQ 062110
RWRNM
NEW MEXICO REGIONAL WEATHER ROUNDUP
NATIONAL WEATHER SERVICE ALBUQUERQUE NM
200 PM MST SAT FEB 06 2016

NOTE: "FAIR" MEANS FEW OR NO CLOUDS BELOW 12,000 FEET AGL WITH NO
       SIGNIFICANT WEATHER OR OBSTRUCTIONS TO VISION.

      THIS PRODUCT IS RELEASED AS TWO VERSIONS.  ONE VERSION NEAR
      THE TOP OF THE HOUR CONTAINING PRELIMINARY DATA FROM ALBUQUERQUE
      AND OTHER STATIONS.  A FINAL VERSION WITH ADDITIONAL DATA IS
      ISSUED ABOUT 10 MINUTES AFTER THE HOUR.

NMZ501-503-504-510>518-062200-
NORTHWEST PLATEAU/NORTHCENTRAL MOUNTAINS

CITY           SKY/WX    TMP DP  RH WIND       PRES   REMARKS
FARMINGTON     SUNNY     37  15  40 W8        30.40F WCI  31
LOS ALAMOS     SUNNY     37  14  38 NE3       30.34F
SANTA FE       SUNNY     43  10  26 NW14      30.32F
TAOS             N/A    N/A N/A N/A MISG        N/A
ANGEL FIRE     FAIR      34  12  40 W13       30.30F WCI  25

$$
NMZ402-403-502-505>509-062200-
WESTCENTRAL MOUNTAINS/SOUTHWEST MOUNTAINS

CITY           SKY/WX    TMP DP  RH WIND       PRES   REMARKS
GALLUP         SUNNY     44  12  27 W3        30.39F
GRANTS         SUNNY     48   5  17 N10G20    30.38F
SILVER CITY      N/A     50   0  12 SE8       30.40F

$$
NMZ407-409-411-412-062200-
SOUTHERN DESERTS

CITY           SKY/WX    TMP DP  RH WIND       PRES   REMARKS
LORDSBURG      FAIR      55   7  14 E14G22    30.36F
DEMING         SUNNY     52   5  15 CALM      30.38F
LAS CRUCES     SUNNY     51   4  14 CALM      30.39F
HOLLOMAN AFB   SUNNY     53   6  15 W7        30.35F
ALAMOGORDO     SUNNY     55   3  12 NW8G17    30.36F
T OR C         SUNNY     49   5  16 VRB3      30.36F

$$
NMZ519>523-062200-
CENTRAL VALLEYS/CENTRAL HIGHLANDS

CITY           SKY/WX    TMP DP  RH WIND       PRES   REMARKS
ALBUQUERQUE    SUNNY     48   8  19 W3        30.36F
DOUBLE EAGLE   SUNNY     46   9  21 VRB7      30.37F
MORIARTY ARPT  FAIR      47  12  23 NW12G21   30.31F
CLINES CORNERS SUNNY     38  14  37 NW26G33   30.26F WCI  26
BELEN          FAIR      48   4  16 NE3       30.36F
SOCORRO        FAIR      49   8  18 N5        30.36F

$$
NMZ524>526-539-540-062200-
SOUTHCENTRAL MOUNTAINS

CITY           SKY/WX    TMP DP  RH WIND       PRES   REMARKS
RUIDOSO          N/A     50   0  12 NW13G23   30.33F

$$
NMZ527>531-062200-
NORTHEAST HIGHLANDS/NORTHEAST PLAINS

CITY           SKY/WX    TMP DP  RH WIND       PRES   REMARKS
LAS VEGAS      SUNNY     48  10  21 S5        30.22F
RATON          SUNNY     49   7  18 S7        30.18F
CLAYTON        SUNNY     54   3  12 S16       30.18F

$$
NMZ532>537-062200-
EASTCENTRAL PLAINS

CITY           SKY/WX    TMP DP  RH WIND       PRES   REMARKS
TUCUMCARI      SUNNY     58   5  12 S13G18    30.20F
CANNON AFB     SUNNY     55   8  15 SW12      30.25F
CLOVIS AIRPORT SUNNY     54  12  19 S8G16     30.26F

$$
NMZ028-029-538-062200-
SOUTHEAST PLAINS

CITY           SKY/WX    TMP DP  RH WIND       PRES   REMARKS
ROSWELL        SUNNY     56  10  16 S6        30.27F
ARTESIA        SUNNY     59   7  12 SE3G12    30.29F
CARLSBAD       SUNNY     60  11  14 SE9       30.28F
HOBBS          SUNNY     55   3  12 W7        30.30F


$$



USA.gov is the U.S. government's official web portal to all federal, state and local government web resources and services.